Wind_Speed
29 29 28 27 26 26 25 23 21 19 18 17 17 16 16 15 15 14 14 14 13 13 12 12 12 12 12 11 11 11 12 13 13 13 12 13 13 14 15 16 17 17 18 18
29 29 28 27 28 27 26 24 22 21 19 18 17 16 15 15 15 14 14 14 14 13 13 13 13 12 12 11 12 12 13 14 14 15 15 15 15 16 16 17 17 17 17 18
27 27 28 29 28 26 25 23 22 21 19 18 17 16 16 16 15 15 14 15 15 15 15 14 14 14 14 13 14 14 15 15 15 16 16 16 17 17 18 18 18 18 19 20
27 28 28 27 26 25 24 23 22 21 20 19 18 18 17 17 16 16 16 16 16 16 16 16 16 16 16 16 16 16 16 17 17 16 17 18 18 18 18 18 19 19 20 21
28 27 27 28 26 25 24 23 23 22 21 20 19 19 18 18 17 17 17 17 17 17 17 17 17 16 16 17 17 17 17 17 17 18 18 18 18 18 18 19 19 20 21 20
30 28 26 27 26 25 24 24 23 23 22 21 21 21 20 20 19 19 19 18 18 18 18 17 17 17 17 17 18 18 18 18 19 19 19 19 19 19 20 20 20 21 21 21
30 28 27 28 25 25 26 25 24 23 23 22 22 22 22 22 21 20 20 20 20 19 18 18 18 18 18 19 19 19 20 20 20 20 21 21 21 21 22 22 22 22 22 21
31 29 30 28 26 27 26 26 25 25 24 24 23 23 23 22 22 22 22 21 20 20 20 20 20 20 20 20 21 21 20 21 21 22 22 22 22 22 23 23 23 22 22 22
34 32 31 28 27 27 27 27 26 26 25 25 25 24 24 24 23 23 22 22 21 22 22 22 21 21 21 22 22 22 21 22 22 23 23 23 23 23 23 23 23 22 22 22
34 33 31 29 29 28 28 27 27 27 26 26 26 25 25 24 24 23 23 22 22 22 23 23 23 22 22 23 23 23 22 23 23 23 23 23 24 23 23 22 22 22 22 22
35 34 32 32 31 29 29 29 28 27 27 27 26 26 25 24 24 24 24 24 24 23 23 24 24 23 23 23 23 22 22 23 23 23 24 24 23 23 23 22 22 22 22 21
37 35 34 33 32 31 31 30 29 28 27 26 26 26 25 25 25 25 25 25 25 25 25 24 24 24 23 23 22 22 23 23 23 23 23 24 23 23 22 22 22 21 21 21
36 35 34 33 32 32 31 30 29 28 28 27 27 27 26 26 26 26 26 26 27 26 26 26 25 24 24 23 23 23 24 24 24 24 24 23 23 23 22 22 22 21 21 21
36 35 34 34 33 32 32 31 30 30 29 28 28 28 28 28 27 27 27 27 27 27 27 26 26 25 24 24 24 24 24 24 24 24 23 23 23 23 22 22 21 21 21 22
36 35 35 34 33 33 32 32 32 32 31 30 29 29 29 28 28 27 27 27 27 27 27 26 25 25 24 24 24 24 24 24 23 23 22 22 22 22 22 22 22 22 22 22
35 35 34 33 33 32 32 32 32 32 31 31 31 30 30 29 29 28 28 28 28 27 27 27 26 25 25 24 24 25 25 24 23 23 22 22 22 22 22 22 22 23 23 23
33 33 33 33 32 31 31 31 32 32 32 31 31 30 29 29 29 28 28 28 27 27 27 27 26 26 25 25 25 25 24 24 24 23 22 22 22 22 22 22 23 23 22 23
32 32 32 32 31 31 31 31 31 31 32 32 31 30 30 29 29 28 27 27 27 27 26 26 26 26 25 24 24 24 24 24 23 23 23 22 22 22 22 22 22 23 22 23
31 30 30 30 30 29 30 30 30 30 30 30 30 31 30 29 28 27 27 26 25 26 26 26 26 25 24 24 23 23 23 23 23 23 22 22 23 22 22 22 22 22 23 23
30 30 30 30 29 29 29 28 29 29 29 29 29 29 29 29 29 28 26 25 25 25 25 25 25 25 24 23 23 24 23 23 23 22 22 22 22 21 22 22 22 23 23 23
29 29 29 29 29 29 29 28 28 28 29 29 29 29 29 29 29 28 27 26 24 24 24 24 24 23 23 22 22 23 23 22 22 22 21 21 20 21 21 21 22 22 22 23
27 27 28 28 27 27 27 28 27 27 27 28 28 27 27 27 27 27 26 25 25 25 25 25 24 23 22 22 22 22 22 22 21 20 20 20 20 21 21 21 21 22 22 23
26 26 26 26 26 26 26 26 27 26 26 26 26 26 26 25 26 26 25 25 25 25 24 23 22 22 22 22 22 22 21 21 20 20 20 21 21 21 20 20 21 22 23 23
25 25 24 24 25 25 25 25 24 24 24 24 24 24 24 23 23 24 23 23 23 22 21 21 21 21 21 21 20 19 19 19 20 20 20 21 20 20 20 21 22 23 23 24
23 23 24 24 24 23 23 23 23 22 21 21 21 21 21 21 21 21 20 19 19 19 19 19 20 19 19 19 19 19 19 20 20 20 20 19 20 20 21 22 23 23 24 25
21 21 21 22 21 21 20 20 20 20 20 20 19 19 19 18 18 18 18 18 18 18 18 18 18 18 18 18 18 19 19 19 19 19 20 20 21 21 22 23 24 25 26 27
18 19 20 19 18 18 18 18 18 18 18 17 17 17 17 17 17 16 16 17 17 17 17 17 17 17 17 17 18 19 18 18 19 20 20 21 21 22 24 24 25 26 26 26
Wind_Direction
224 231 233 234 235 236 238 240 242 247 249 251 253 256 259 261 264 267 273 280 282 287 292 295 298 297 297 295 296 295 298 298 299 297 295 292 292 294 293 289 288 287 285 282
226 230 232 232 233 235 238 240 242 244 246 247 250 252 256 258 261 266 272 275 279 284 290 291 293 290 290 291 293 295 298 299 298 296 295 296 297 298 297 297 294 292 290 285
226 229 230 232 232 234 236 239 242 242 243 245 247 247 251 253 257 262 268 270 274 282 287 287 288 285 285 289 291 293 295 296 297 296 295 295 296 297 298 298 295 293 291 289
224 227 229 231 232 233 235 237 238 239 242 243 244 245 247 249 254 259 263 266 271 280 286 286 287 285 283 286 288 290 292 294 294 294 295 295 294 296 298 298 296 295 294 293
222 227 231 232 230 231 233 236 237 240 242 241 242 245 246 247 251 255 260 264 270 276 280 282 285 287 285 285 287 288 290 292 292 294 295 295 295 296 297 298 298 297 299 296
224 225 231 234 229 229 232 235 238 240 241 241 241 244 246 248 252 255 259 264 269 273 275 278 282 283 284 286 287 287 288 290 290 293 294 294 295 296 297 298 299 298 297 295
226 227 231 231 227 227 230 233 235 238 240 241 242 244 247 250 253 257 260 263 267 270 272 274 278 282 284 286 287 286 286 287 289 291 293 294 295 296 297 298 298 298 297 296
227 229 234 229 228 229 230 233 235 238 240 243 244 245 247 250 252 257 260 261 264 267 270 273 277 280 282 283 285 285 283 285 287 290 292 293 294 295 296 297 298 298 297 296
227 229 232 231 231 232 233 236 237 239 242 244 245 246 248 251 253 255 256 257 261 265 268 271 274 278 280 282 284 285 285 285 288 290 291 293 294 295 295 296 296 296 296 296
230 231 232 232 232 234 236 238 240 242 245 246 246 247 249 250 251 253 255 257 261 263 267 270 272 276 279 280 283 285 285 285 287 289 290 292 294 295 296 296 296 295 295 295
231 232 233 234 236 237 238 240 242 243 245 246 246 248 249 249 251 253 255 257 260 262 265 268 270 273 276 278 280 282 284 286 288 289 291 293 295 295 296 296 296 296 295 295
230 232 234 236 237 238 239 241 242 244 245 246 247 247 248 249 251 254 256 257 260 261 264 267 268 270 274 276 278 280 283 286 288 290 291 293 294 295 295 297 297 297 297 297
231 232 234 236 238 239 240 241 242 243 244 245 246 248 249 249 251 254 256 256 259 261 263 264 265 268 272 274 276 280 284 286 287 288 290 292 293 294 296 297 298 297 298 299
230 232 233 235 237 239 241 241 243 243 244 244 246 248 249 250 252 253 255 256 258 261 262 261 263 268 272 273 275 279 283 285 287 288 290 292 293 295 295 296 298 299 298 299
231 232 233 235 237 240 241 242 243 244 244 244 245 247 249 251 252 254 255 256 258 259 260 259 262 266 269 272 275 279 282 284 287 288 290 292 293 294 296 297 297 299 299 299
231 233 234 235 237 239 240 241 242 242 243 243 244 245 246 248 250 252 255 255 255 257 259 260 262 265 268 271 275 278 281 284 287 288 290 291 292 294 295 295 296 298 299 300
229 231 233 234 236 237 238 239 240 240 240 241 241 242 244 246 247 250 254 254 254 255 256 257 260 264 267 270 274 278 281 284 285 286 288 290 291 293 294 294 296 297 298 300
228 231 233 234 234 236 238 239 239 238 237 237 238 240 242 245 246 248 250 252 253 254 255 256 260 263 266 270 274 278 280 282 283 283 286 288 289 291 293 294 296 297 298 300
225 227 229 230 231 233 234 235 234 234 234 235 237 240 242 243 244 247 250 250 252 252 253 255 257 261 266 269 273 276 279 281 283 283 284 286 287 288 291 294 296 297 299 300
222 224 226 227 227 227 229 231 232 233 233 234 235 237 240 241 242 244 246 248 251 252 252 253 257 263 267 269 272 276 278 280 282 283 284 286 288 289 292 294 296 297 298 300
219 220 221 223 224 224 226 228 229 229 230 232 234 237 239 239 240 241 244 247 249 251 253 255 260 264 267 270 273 276 277 279 280 282 285 287 288 290 292 294 295 297 299 301
213 216 218 220 222 222 223 224 226 228 228 230 232 235 236 237 238 239 241 245 248 250 252 255 261 265 268 270 274 275 277 279 280 282 285 286 287 290 292 293 296 299 301 302
211 212 214 216 216 218 220 222 224 226 227 229 230 231 232 233 235 238 242 245 248 251 253 258 263 266 268 270 273 275 277 279 280 282 284 285 287 289 291 294 297 298 299 301
207 208 210 212 212 214 217 219 222 224 226 227 227 228 231 234 238 242 244 245 247 250 254 259 262 265 267 270 273 274 277 280 281 283 286 287 288 290 292 294 296 299 300 302
203 206 209 210 212 214 215 217 219 221 226 226 226 229 232 235 237 238 242 244 245 250 255 260 263 265 268 270 271 274 278 281 283 285 287 287 289 291 293 295 297 299 300 301
198 201 205 207 209 212 214 215 216 218 219 219 222 226 230 233 235 238 241 244 248 251 255 259 261 267 270 271 273 277 280 281 283 285 287 288 290 292 294 296 298 299 301 302
196 199 200 201 205 208 210 213 213 214 215 217 221 226 228 230 233 237 241 246 249 251 255 261 265 269 271 273 275 278 280 283 286 287 288 289 291 294 296 298 299 300 302 303
Height
5855 5857 5861 5865 5869 5872 5876 5879 5883 5885 5886 5887 5887 5888 5888 5889 5889 5889 5889 5888 5887 5887 5886 5884 5883 5881 5880 5879 5878 5877 5876 5874 5873 5872 5870 5869 5868 5866 5865 5864 5863 5862 5861 5860
5849 5852 5856 5859 5863 5866 5870 5873 5876 5879 5881 5882 5883 5884 5884 5885 5885 5886 5886 5885 5885 5884 5883 5882 5880 5879 5878 5877 5876 5875 5873 5872 5870 5869 5867 5866 5865 5863 5862 5861 5859 5858 5856 5855
5844 5847 5850 5854 5858 5861 5865 5868 5871 5874 5877 5877 5878 5880 5880 5881 5881 5882 5882 5882 5881 5881 5880 5879 5877 5876 5875 5874 5873 5872 5871 5869 5868 5866 5864 5863 5862 5860 5859 5857 5855 5854 5852 5850
5839 5842 5845 5851 5852 5856 5860 5862 5865 5868 5870 5872 5873 5875 5876 5877 5877 5878 5878 5878 5877 5877 5876 5875 5874 5873 5872 5871 5870 5869 5868 5866 5865 5863 5861 5860 5858 5857 5855 5853 5851 5849 5847 5845
5833 5836 5840 5844 5847 5851 5854 5857 5860 5862 5865 5866 5868 5870 5871 5872 5873 5873 5874 5874 5873 5873 5872 5871 5870 5869 5869 5868 5867 5865 5864 5863 5861 5860 5858 5857 5855 5853 5851 5849 5847 5845 5842 5840
5827 5831 5835 5839 5841 5845 5850 5851 5854 5856 5859 5861 5863 5865 5867 5867 5868 5868 5869 5869 5869 5868 5868 5867 5866 5865 5865 5864 5863 5861 5860 5859 5857 5856 5854 5853 5851 5849 5847 5844 5842 5840 5838 5836
5820 5825 5829 5831 5835 5840 5844 5847 5848 5850 5853 5855 5857 5859 5861 5861 5862 5863 5864 5864 5864 5863 5863 5863 5862 5861 5860 5859 5858 5857 5856 5855 5853 5851 5850 5848 5846 5844 5842 5840 5838 5835 5833 5831
5813 5818 5823 5825 5829 5833 5837 5839 5842 5844 5847 5849 5851 5853 5854 5855 5857 5857 5858 5858 5858 5858 5858 5858 5857 5857 5856 5855 5854 5852 5851 5850 5848 5847 5845 5843 5841 5839 5837 5835 5833 5830 5828 5826
5806 5811 5814 5818 5822 5826 5830 5833 5835 5838 5840 5843 5845 5846 5848 5849 5850 5851 5852 5852 5853 5853 5853 5852 5852 5851 5850 5850 5848 5847 5846 5845 5843 5842 5840 5838 5836 5834 5832 5829 5827 5825 5823 5821
5798 5802 5807 5811 5815 5819 5822 5825 5828 5831 5834 5836 5838 5840 5841 5843 5844 5845 5846 5846 5847 5847 5847 5847 5846 5845 5845 5844 5843 5842 5841 5840 5838 5836 5835 5833 5831 5828 5826 5824 5821 5819 5817 5815
5790 5795 5799 5803 5807 5811 5815 5818 5821 5824 5826 5828 5830 5832 5834 5836 5837 5838 5839 5840 5840 5840 5841 5840 5840 5840 5839 5838 5837 5836 5835 5834 5832 5831 5829 5827 5825 5823 5821 5819 5816 5814 5812 5810
5782 5787 5792 5796 5800 5803 5807 5810 5813 5816 5818 5820 5823 5825 5826 5828 5830 5831 5832 5833 5833 5833 5834 5834 5834 5834 5833 5832 5831 5831 5829 5828 5827 5825 5823 5821 5819 5817 5815 5813 5811 5809 5806 5804
5773 5778 5783 5787 5791 5795 5798 5802 5805 5808 5810 5813 5815 5817 5819 5820 5822 5823 5824 5825 5826 5826 5826 5827 5827 5827 5827 5826 5826 5825 5823 5822 5821 5819 5817 5815 5813 5811 5809 5807 5805 5803 5801 5798
5765 5770 5775 5779 5783 5786 5790 5793 5797 5800 5802 5805 5807 5809 5811 5813 5814 5815 5817 5818 5818 5819 5819 5820 5820 5820 5820 5820 5819 5818 5817 5816 5814 5813 5811 5809 5808 5806 5804 5802 5799 5797 5795 5792
5756 5761 5766 5770 5774 5778 5781 5785 5788 5791 5794 5796 5799 5801 5803 5805 5806 5808 5809 5810 5811 5811 5812 5812 5813 5814 5813 5813 5813 5812 5811 5810 5808 5807 5805 5803 5802 5800 5798 5796 5794 5791 5789 5786
5748 5752 5757 5762 5766 5769 5772 5776 5779 5782 5785 5788 5790 5792 5795 5797 5799 5800 5801 5802 5803 5804 5805 5806 5806 5807 5807 5807 5806 5805 5804 5803 5802 5801 5799 5798 5796 5794 5792 5790 5788 5786 5783 5780
5740 5744 5749 5753 5757 5760 5764 5767 5770 5773 5776 5779 5782 5784 5787 5789 5791 5792 5794 5795 5796 5797 5798 5799 5800 5800 5800 5800 5799 5799 5798 5797 5796 5795 5793 5792 5790 5788 5786 5784 5782 5780 5777 5774
5731 5736 5740 5744 5748 5752 5755 5758 5761 5764 5768 5771 5774 5776 5779 5781 5783 5785 5786 5787 5789 5790 5791 5793 5793 5794 5794 5794 5793 5792 5792 5791 5790 5788 5787 5785 5784 5782 5780 5778 5776 5774 5771 5768
5723 5728 5732 5736 5740 5744 5747 5750 5753 5756 5760 5763 5766 5769 5771 5773 5776 5778 5779 5781 5782 5783 5785 5786 5787 5787 5787 5787 5787 5786 5785 5784 5783 5782 5780 5779 5777 5776 5774 5772 5770 5767 5765 5762
5716 5720 5725 5729 5733 5736 5740 5743 5746 5750 5753 5756 5759 5761 5764 5767 5769 5771 5773 5774 5776 5777 5778 5779 5780 5781 5781 5780 5780 5780 5779 5778 5777 5775 5774 5772 5771 5769 5768 5765 5763 5761 5758 5756
5709 5714 5718 5722 5726 5730 5733 5737 5740 5743 5746 5749 5752 5755 5757 5759 5762 5764 5766 5768 5769 5771 5772 5773 5774 5774 5774 5774 5774 5773 5772 5772 5771 5769 5768 5766 5765 5763 5761 5759 5757 5754 5752 5749
5704 5708 5712 5716 5720 5724 5727 5731 5734 5737 5740 5743 5746 5748 5751 5753 5755 5757 5760 5762 5763 5764 5766 5767 5767 5768 5768 5768 5767 5767 5766 5765 5764 5763 5762 5760 5758 5757 5755 5753 5751 5748 5746 5743
5699 5703 5707 5711 5715 5718 5722 5725 5728 5731 5734 5737 5740 5742 5745 5747 5749 5752 5754 5755 5757 5758 5759 5760 5761 5761 5761 5761 5761 5760 5760 5759 5758 5757 5755 5754 5752 5750 5748 5746 5744 5742 5739 5737
5695 5700 5703 5707 5710 5714 5717 5720 5723 5726 5729 5732 5734 5737 5739 5742 5744 5746 5747 5749 5750 5752 5753 5753 5754 5755 5755 5755 5754 5754 5753 5753 5751 5750 5749 5747 5746 5744 5742 5740 5738 5735 5733 5730
5692 5696 5700 5703 5706 5710 5713 5716 5719 5722 5724 5727 5730 5732 5735 5737 5739 5740 5742 5743 5745 5746 5747 5748 5748 5749 5749 5749 5748 5748 5747 5747 5745 5744 5743 5741 5739 5738 5736 5734 5731 5729 5726 5723
5690 5693 5697 5700 5703 5706 5709 5712 5715 5718 5721 5723 5726 5728 5730 5732 5734 5736 5737 5738 5740 5741 5742 5742 5743 5743 5743 5743 5742 5742 5741 5740 5739 5738 5736 5735 5733 5731 5729 5727 5724 5722 5719 5716
5688 5691 5694 5698 5701 5704 5707 5710 5712 5715 5717 5720 5722 5724 5726 5728 5730 5731 5733 5734 5735 5736 5737 5737 5737 5738 5737 5737 5737 5736 5735 5734 5733 5732 5730 5729 5727 5724 5722 5720 5717 5714 5711 5708